Theta_e
343 342 344 343 342 342 338 334 333 333 333 334 336 336 337 337 336 336 334 333 334 337 337 335 335 335 334 334 334 334 333 333 334 333 334 333 333 330 329 329 328 328 330 333 333 333 333 332 332 330 329 331 335 335 334 334 333 333 332 331 330 329
343 344 345 343 343 341 337 335 334 333 332 335 337 337 337 338 337 336 334 335 338 340 339 337 337 336 335 336 335 332 332 333 333 333 333 333 333 331 329 329 328 328 329 332 333 334 334 333 332 330 330 334 336 334 334 333 332 332 331 331 330 328
345 344 344 344 343 341 337 336 335 335 335 338 339 338 338 339 339 337 336 339 340 340 341 339 338 337 337 336 334 332 331 332 331 330 329 329 330 330 329 329 329 327 328 331 334 336 336 335 333 330 332 335 335 334 334 333 331 332 331 331 329 325
345 344 344 344 343 341 337 336 338 339 338 339 340 340 339 338 339 339 340 339 337 339 340 340 338 337 337 336 334 332 330 328 326 324 325 327 326 327 328 328 328 327 328 330 333 335 337 338 336 333 335 336 335 335 334 332 331 332 332 331 330 327
345 344 344 343 342 340 336 337 339 339 337 337 339 340 339 339 340 341 341 337 335 337 337 337 337 336 337 336 334 332 330 330 328 325 327 330 329 328 329 328 327 328 329 331 333 335 336 338 338 336 336 336 335 335 334 333 332 332 332 331 330 330
344 344 343 342 342 339 337 339 339 337 337 337 338 339 339 340 341 340 339 336 336 338 336 337 337 337 337 336 334 334 334 334 333 330 331 333 332 331 332 330 329 330 331 331 332 334 336 338 338 336 336 335 335 334 334 333 333 333 333 331 331 331
343 343 343 341 341 339 338 341 340 338 339 339 339 340 340 339 339 338 337 336 337 338 338 338 338 337 336 335 334 335 334 334 333 332 332 332 332 332 332 331 331 331 331 332 332 333 335 338 338 336 335 335 334 333 333 333 333 334 333 332 331 331
343 342 342 341 340 340 339 341 341 339 340 340 340 340 340 339 338 337 336 336 338 339 339 338 338 336 335 334 334 334 333 333 333 332 332 333 333 333 333 332 332 331 331 331 331 331 333 337 337 336 335 334 334 333 333 334 334 334 333 333 331 331
342 341 341 340 340 339 339 341 341 340 340 339 340 340 340 339 338 337 337 338 339 339 339 338 337 335 334 334 333 333 333 333 333 333 333 334 335 334 333 333 332 332 331 330 330 330 332 335 336 335 335 334 334 334 333 334 334 334 334 333 332 329
340 339 340 340 339 338 339 341 340 340 340 339 340 339 339 339 338 338 338 338 339 339 338 338 336 335 334 333 333 334 334 333 333 333 334 334 335 335 334 333 333 332 331 331 330 330 331 334 335 334 334 334 335 335 334 335 334 335 335 334 333 330
338 339 340 340 338 337 339 340 339 339 339 339 338 338 337 339 338 338 338 338 338 338 338 337 335 335 335 334 335 336 335 334 334 333 335 334 334 334 334 334 334 333 333 332 331 331 332 333 334 334 334 334 336 335 335 335 335 334 334 333 333 331
339 339 339 339 338 337 338 339 339 339 338 337 336 337 337 338 338 338 338 338 338 338 338 336 335 335 335 336 336 336 336 335 334 333 334 334 334 334 334 334 333 334 334 334 333 333 334 334 333 333 334 334 336 335 335 335 335 334 333 332 332 332
339 339 339 339 339 337 337 339 338 338 337 335 335 336 337 337 338 338 338 338 338 338 338 336 336 335 335 336 337 337 336 335 334 333 333 333 334 334 334 334 333 334 334 335 335 335 335 334 333 334 334 335 335 335 335 334 334 334 333 332 332 332
339 339 339 339 338 336 337 338 337 337 336 334 335 336 336 337 337 337 337 337 338 338 338 337 337 336 335 336 337 337 336 335 334 333 332 333 334 334 334 334 333 333 334 334 335 335 334 334 334 335 335 336 335 335 334 334 334 334 333 333 332 332
338 338 338 337 336 335 336 337 337 337 335 334 335 336 336 337 337 337 337 337 337 338 338 338 338 337 336 336 337 336 336 336 334 333 333 334 334 334 334 333 333 334 334 334 335 334 334 335 335 335 336 336 335 335 334 334 334 333 333 333 333 332
338 337 337 336 335 334 335 337 337 336 335 334 335 335 335 336 337 337 337 337 337 338 338 339 338 337 336 336 336 336 336 335 334 334 334 334 334 334 333 333 333 333 333 333 334 334 334 334 334 334 335 335 335 334 333 333 333 332 332 333 333 333
337 337 337 336 335 333 335 337 337 335 334 334 334 335 335 336 337 336 337 337 336 337 338 338 337 336 337 336 336 336 336 334 334 335 334 334 334 333 333 333 333 333 332 332 333 334 334 334 334 334 334 334 334 334 333 332 332 332 332 332 333 333
336 336 336 336 335 333 334 336 336 335 335 335 335 335 336 336 337 337 337 337 336 336 337 337 336 336 337 336 336 336 335 333 334 335 335 334 334 334 333 333 333 333 332 333 333 333 333 333 333 333 334 334 334 333 333 332 332 332 331 332 332 331
336 336 335 335 335 333 335 336 335 335 335 335 335 336 336 336 336 337 337 337 336 336 336 337 336 337 337 336 336 336 335 334 335 336 335 334 334 334 334 334 333 332 332 333 333 333 333 333 333 333 333 333 333 333 332 331 331 331 331 332 330 328
335 335 334 335 334 334 335 335 335 334 334 335 335 336 336 336 336 336 337 337 336 336 336 336 336 337 337 336 336 336 336 335 335 335 335 334 334 334 334 334 333 332 332 332 332 333 332 332 332 332 332 332 332 332 331 330 330 331 331 330 328 328
335 334 334 334 334 334 334 334 335 334 334 335 336 336 336 336 336 336 337 337 336 336 336 336 337 337 337 337 336 336 336 335 334 334 334 334 334 334 333 333 332 332 332 332 332 333 332 332 332 332 332 332 331 331 330 330 330 330 330 329 328 328
335 334 333 333 333 333 334 334 335 335 334 335 335 335 335 336 336 337 337 336 336 336 336 336 336 336 336 335 335 334 335 335 334 334 334 334 333 333 333 333 332 332 332 332 332 332 332 332 331 331 332 331 331 331 330 330 330 330 330 329 329 329
335 335 334 333 333 334 335 335 335 336 335 335 335 335 335 336 337 337 336 336 336 336 336 335 334 334 334 333 333 332 334 335 334 334 334 333 333 333 333 333 332 332 333 332 332 332 332 333 331 331 332 331 331 331 330 330 330 329 329 329 329 329
336 335 334 334 334 335 335 335 336 336 336 335 336 336 336 336 336 336 336 336 336 336 336 334 333 333 333 333 333 333 334 335 334 334 333 333 333 333 333 333 332 332 332 332 332 332 332 333 332 331 330 331 331 330 329 329 330 329 329 329 329 329
336 335 335 334 334 335 335 335 336 336 336 336 336 336 336 337 337 336 336 337 336 336 335 334 333 333 333 333 333 333 334 334 334 334 334 333 333 332 333 333 332 332 332 332 332 331 331 332 332 331 331 331 331 330 329 329 329 329 329 329 329 329
336 335 335 335 335 335 335 334 336 335 334 335 335 336 336 336 337 336 336 337 336 335 334 334 334 333 333 333 332 333 333 333 333 333 332 332 331 331 332 332 332 332 332 332 332 332 331 331 332 332 331 331 332 330 330 330 329 329 329 329 328 328
336 336 335 335 335 335 335 335 335 334 333 334 334 335 335 335 336 336 336 335 335 334 334 334 333 333 332 332 332 332 331 331 331 331 330 330 330 329 330 331 331 332 331 332 332 332 332 331 332 332 331 331 332 331 330 330 330 329 329 328 327 327
337 336 335 335 335 335 335 335 335 334 334 334 334 334 334 335 335 335 335 334 334 334 333 333 333 333 332 332 331 331 331 331 330 330 330 330 330 329 329 330 331 331 331 331 331 331 331 331 331 331 331 331 331 331 330 330 329 329 328 328 326 326
337 336 335 335 336 336 336 335 335 334 334 335 334 334 334 334 334 334 334 333 333 333 332 332 331 331 332 332 331 331 331 331 331 330 330 330 330 330 330 331 332 332 331 332 331 331 331 331 330 331 331 330 331 331 330 330 329 329 329 328 327 326
337 336 336 335 336 337 335 335 336 335 334 334 333 333 334 334 334 333 333 333 332 332 331 331 330 330 330 330 331 331 330 331 331 330 330 330 330 330 330 331 332 332 331 331 331 331 331 331 331 331 330 330 330 330 330 330 330 329 329 328 328 327
337 336 335 335 336 336 336 336 337 335 334 334 333 333 334 333 333 333 332 332 332 331 332 331 330 330 329 329 330 330 330 330 330 330 330 330 331 331 331 331 332 331 331 331 331 330 331 331 331 331 331 331 330 330 331 330 329 329 329 329 328 328
336 335 335 335 336 336 336 336 337 336 335 335 334 333 333 333 333 332 332 331 331 331 331 331 330 330 330 329 329 329 329 329 329 330 330 330 331 332 332 331 331 331 331 331 330 330 330 331 331 331 330 331 329 329 331 329 328 328 328 329 329 328
336 335 335 335 336 336 336 337 337 336 335 334 334 333 333 332 331 331 331 331 330 330 330 330 329 330 330 329 329 328 328 329 329 329 329 329 329 331 332 332 331 331 331 330 330 330 330 331 331 331 330 330 329 328 330 330 329 329 328 327 328 327
335 335 335 335 336 335 335 336 336 335 334 333 333 332 331 331 331 331 331 330 330 329 329 329 329 329 328 328 328 328 328 328 329 329 329 328 328 329 330 331 331 331 330 330 331 330 331 331 332 331 330 330 330 328 329 330 330 329 328 327 327 326
335 335 334 334 335 334 334 335 335 334 333 333 333 331 330 331 331 331 330 330 329 329 328 328 328 328 328 328 328 328 328 328 329 329 328 327 327 327 328 330 331 331 331 331 331 331 331 332 331 331 330 330 330 329 329 330 329 329 328 327 327 326
334 334 333 332 333 333 333 334 334 333 333 333 333 332 331 332 332 331 330 329 329 329 328 327 327 328 328 327 327 327 327 327 327 327 327 327 327 326 328 330 332 332 331 331 331 331 332 332 331 331 331 330 329 329 330 330 329 329 328 327 327 326
331 331 330 330 331 332 332 333 333 333 332 332 333 332 331 332 331 331 329 329 329 329 328 327 327 327 327 327 327 327 327 327 327 326 326 326 326 326 327 329 331 332 332 331 331 332 332 332 331 331 331 330 330 329 330 330 329 329 328 328 328 327
Wind_Speed
22 22 19 17 18 19 18 18 18 19 20 19 17 18 18 18 18 17 17 17 15 14 14 15 15 14 15 14 13 12 12 13 12 12 12 12 12 12 12 10 10 9 10 9 8 7 9 10 9 9 8 10 12 11 9 9 10 10 10 11 11 12
20 20 18 17 16 18 19 17 17 18 18 17 17 18 18 18 17 17 17 16 15 14 13 14 15 15 14 14 13 12 12 12 12 12 12 12 11 11 12 10 10 9 9 10 9 6 7 10 9 9 9 10 9 7 8 8 9 10 10 11 11 11
20 19 18 17 15 17 18 18 18 18 17 16 16 17 17 17 16 17 18 16 16 15 13 13 15 16 15 14 13 11 12 11 11 11 10 10 10 10 11 10 9 9 9 10 9 7 7 10 10 10 9 7 7 7 8 8 8 9 9 10 11 11
20 20 18 17 16 17 17 17 18 17 17 17 16 14 16 17 16 16 17 18 19 17 14 14 15 16 15 14 12 11 11 10 9 9 9 8 8 8 8 9 9 9 9 8 8 8 7 9 10 11 8 6 7 8 7 7 8 9 9 10 10 10
20 20 18 17 16 16 17 17 16 17 19 19 17 15 16 16 15 16 17 19 19 16 15 16 15 15 14 12 12 11 10 8 8 8 8 7 7 8 7 9 10 9 8 7 7 7 7 8 9 10 8 7 8 8 7 7 8 9 9 10 9 9
20 19 18 17 16 16 17 15 15 17 18 18 18 16 14 15 15 15 17 20 19 16 14 14 13 12 11 11 11 10 8 8 8 7 7 6 7 8 8 9 9 9 8 8 7 7 7 7 8 9 8 8 8 8 8 7 8 9 9 10 9 8
21 20 18 17 16 15 16 14 15 17 15 14 14 12 11 13 14 15 18 19 17 14 13 12 10 10 10 10 10 8 7 7 7 7 7 7 7 7 7 7 8 8 8 8 8 7 7 7 8 8 8 8 8 7 7 7 8 9 10 11 10 8
21 20 18 17 16 14 15 15 14 15 14 12 12 10 9 10 13 16 18 17 14 13 12 11 10 10 10 10 9 8 7 6 6 6 7 6 6 6 6 6 6 7 7 7 8 8 7 7 8 8 8 8 7 7 7 7 8 8 10 11 10 9
20 20 19 17 15 15 15 14 14 13 12 12 10 10 9 9 12 14 15 14 12 11 11 10 10 10 10 10 9 8 7 6 5 5 5 5 6 6 6 6 6 6 6 7 7 7 7 8 8 8 8 8 7 7 7 8 8 8 9 10 10 9
17 17 18 16 16 16 15 14 13 12 12 12 9 9 9 9 11 11 12 12 11 11 10 9 10 9 10 10 10 9 8 7 5 4 4 5 6 6 6 6 5 5 6 6 7 7 7 8 8 8 7 7 8 7 7 7 7 8 9 9 10 9
16 16 16 15 16 16 15 14 13 12 11 11 10 10 9 9 10 11 11 11 11 10 9 9 9 9 10 10 9 9 8 7 6 5 4 5 6 6 6 5 5 4 5 6 7 7 7 8 8 8 8 7 7 7 7 7 6 8 8 8 9 9
18 18 16 15 16 15 15 14 13 12 11 11 12 10 9 9 10 10 11 11 11 10 9 9 10 9 9 9 9 9 8 7 6 5 4 4 5 6 5 5 5 5 5 6 7 7 6 7 7 8 8 7 7 6 6 6 6 7 6 6 7 7
18 17 15 14 15 15 14 13 12 11 11 12 12 9 9 9 9 10 11 11 11 10 9 9 10 9 9 9 8 8 7 7 6 6 5 5 5 6 6 6 6 5 6 7 7 7 7 7 7 7 7 7 7 6 5 6 6 6 6 6 6 7
18 17 15 15 15 15 14 12 12 11 11 13 11 9 10 9 10 11 11 11 10 10 9 9 10 10 9 8 8 7 7 7 7 7 7 6 5 6 6 6 6 6 6 7 8 8 7 7 7 6 6 6 6 5 5 6 6 6 6 6 6 6
17 17 17 17 16 16 15 12 11 11 12 12 10 10 10 10 10 10 10 10 10 10 10 9 9 10 9 8 7 7 7 7 7 7 6 6 5 5 6 6 6 7 7 7 8 7 7 7 6 6 6 5 6 6 6 6 7 7 7 6 7 6
18 17 17 17 17 17 16 13 11 12 13 12 11 11 10 10 10 10 10 10 9 10 9 9 9 9 8 7 7 7 7 7 7 7 6 5 5 5 6 6 6 6 7 8 8 7 7 7 6 6 5 5 5 6 7 8 8 7 7 7 7 7
21 18 17 17 17 17 16 13 12 13 13 11 11 11 11 11 11 10 9 9 10 10 9 9 9 9 8 7 7 6 7 7 7 6 6 5 5 5 6 6 6 6 7 8 8 7 7 7 7 6 6 6 6 6 6 7 6 6 6 7 7 6
22 19 18 18 17 18 17 14 13 13 12 11 11 10 11 11 10 10 9 9 10 10 9 9 9 9 8 7 6 6 7 8 7 5 5 5 5 5 6 6 7 6 7 7 8 8 7 7 7 7 7 6 6 6 5 5 5 5 6 6 7 8
21 19 20 19 17 18 17 15 14 12 12 11 11 11 11 11 10 10 9 9 10 10 9 9 9 9 8 7 7 7 7 7 7 5 5 5 5 5 6 6 7 7 7 6 7 7 8 8 8 7 7 7 6 6 5 5 4 5 5 6 8 9
21 20 21 20 18 19 17 16 14 14 14 13 12 12 11 11 10 10 9 10 10 10 9 9 9 9 8 8 7 7 7 7 7 6 5 5 5 5 6 7 8 8 8 7 7 8 9 9 9 8 8 7 6 5 4 4 5 5 4 5 8 9
22 21 23 22 21 21 19 18 17 16 16 14 13 13 12 11 10 10 10 10 10 9 9 9 9 9 9 8 7 7 7 7 7 7 6 6 5 5 6 7 8 9 9 8 8 8 9 10 10 9 8 8 7 5 5 5 5 4 4 4 5 6
23 23 24 24 22 22 20 19 18 17 16 15 14 13 13 12 11 10 10 10 10 9 9 9 9 9 9 8 8 8 8 8 8 7 6 6 6 6 7 7 8 8 8 8 8 8 10 10 9 9 8 8 7 6 6 5 4 4 4 4 3 4
22 22 23 23 23 21 18 17 16 16 15 14 13 13 12 11 10 10 11 10 9 9 9 9 9 9 9 8 8 8 8 8 8 7 7 7 7 7 8 8 8 8 8 8 7 9 10 7 7 9 8 6 6 5 4 4 4 3 4 5 4 4
22 22 20 21 21 19 18 17 14 13 13 12 12 12 11 11 11 10 11 10 9 9 9 9 9 9 8 8 7 8 8 8 8 8 8 8 8 9 9 9 8 8 8 8 8 9 8 5 6 8 5 3 4 4 3 4 5 4 4 5 5 5
21 20 18 19 21 19 20 19 14 13 13 11 12 13 12 12 12 12 11 11 10 10 9 9 9 8 8 8 8 8 8 9 9 9 9 9 9 10 10 10 9 9 9 8 8 9 7 5 6 6 3 1 3 3 2 6 7 4 4 5 4 5
21 21 18 19 21 21 21 20 18 17 16 14 13 13 14 14 14 13 12 11 11 10 10 9 9 8 8 8 8 8 9 10 10 10 9 9 9 9 10 11 10 9 9 8 8 8 8 6 7 5 3 2 1 2 3 8 8 4 5 5 4 3
23 23 20 19 22 23 22 20 19 19 17 15 15 14 14 15 14 13 12 12 11 11 10 9 9 8 8 8 8 9 9 9 9 9 8 9 9 9 10 11 10 9 9 8 7 7 8 7 7 6 5 3 1 3 5 8 6 5 6 5 5 6
24 25 22 21 23 23 23 20 19 18 17 16 15 15 15 14 13 13 13 13 12 11 10 9 9 8 8 8 8 8 9 10 9 9 8 9 9 9 9 9 9 9 8 8 7 6 7 8 8 7 6 5 3 3 7 7 5 5 5 5 5 6
24 24 23 22 22 22 23 22 20 19 18 17 16 15 15 14 14 14 14 13 12 11 10 9 8 8 8 8 8 8 9 9 9 9 9 9 10 9 9 9 9 9 8 7 7 6 6 7 8 7 7 8 6 6 7 7 6 6 4 6 6 5
22 21 22 24 23 21 21 20 19 19 18 17 16 16 16 15 15 14 14 13 12 11 10 10 9 9 9 8 8 9 9 9 9 9 9 9 10 10 10 9 9 9 8 7 7 6 6 7 7 6 7 9 8 8 7 6 6 7 7 7 6 8
20 20 23 25 24 22 21 18 16 17 18 17 17 17 17 17 16 15 15 14 13 11 10 10 9 9 9 9 9 9 9 9 9 8 9 9 10 10 10 10 9 8 8 8 7 7 6 6 6 7 7 8 7 6 3 2 3 5 4 5 7 9
21 22 25 25 24 23 22 18 16 16 17 17 17 18 17 17 17 16 16 15 13 12 11 10 9 9 9 9 9 9 9 8 8 8 8 8 9 9 10 10 10 9 9 8 7 8 8 7 7 7 8 8 7 6 3 1 3 4 2 5 10 9
23 24 25 25 23 23 20 17 16 16 17 17 17 17 17 17 16 16 15 15 13 12 11 10 10 9 9 9 9 9 9 8 8 8 7 7 8 8 9 9 10 9 9 9 8 9 9 8 7 7 7 8 7 7 5 4 5 4 3 8 12 9
23 24 25 24 22 21 19 16 16 17 18 18 17 16 16 15 15 14 14 14 13 12 11 11 10 9 9 9 8 8 9 8 8 8 7 6 6 7 8 8 8 9 9 8 8 8 8 7 8 7 7 7 8 7 6 5 5 5 7 11 11 10
22 22 22 22 21 21 19 18 19 22 22 21 19 17 16 15 15 13 13 13 12 11 11 11 10 10 9 9 7 7 8 9 10 9 8 6 5 5 6 7 8 9 8 8 8 8 8 7 8 8 7 8 8 7 6 6 7 8 10 10 10 11
20 21 21 21 22 23 23 22 22 24 26 24 21 19 17 16 15 14 13 13 12 11 10 10 10 10 9 8 7 8 8 10 10 9 8 6 5 5 6 7 8 9 9 8 9 9 8 8 8 8 8 8 8 8 7 7 7 8 9 8 8 10
16 18 20 21 23 24 25 24 23 25 27 26 21 18 17 17 16 14 14 13 12 11 10 10 10 10 9 8 8 8 8 9 10 8 7 5 5 5 6 7 8 9 9 9 9 9 8 8 8 7 8 8 8 7 7 7 7 7 8 7 8 10
Wind_Direction
158 157 155 157 159 158 161 161 160 157 155 158 160 159 158 158 158 157 158 154 150 146 146 146 144 145 144 143 145 149 152 149 151 156 162 167 171 168 159 151 144 140 136 131 122 120 129 136 136 131 120 97 79 74 78 83 84 84 86 89 93 99
158 159 156 156 156 158 160 158 157 157 159 161 161 160 157 157 156 158 159 155 149 147 146 146 145 145 143 140 141 146 151 151 154 162 169 172 176 173 165 157 149 144 139 135 130 122 129 140 145 141 120 93 84 90 88 86 88 85 86 88 96 110
160 161 159 156 155 156 156 155 154 156 161 160 160 163 161 158 161 162 159 159 155 148 146 148 149 147 144 143 142 147 152 154 158 163 167 169 173 173 170 166 157 150 142 140 139 134 141 149 152 147 126 101 102 106 97 95 92 88 90 90 97 111
161 163 163 159 157 155 155 156 152 156 163 162 163 167 170 164 165 167 163 165 158 148 150 147 146 145 141 141 141 145 148 148 152 150 146 150 159 162 165 167 164 155 146 151 152 146 152 157 158 155 147 131 124 115 107 101 95 94 96 97 103 107
163 166 165 161 159 157 157 155 152 163 168 168 170 173 177 169 167 173 167 162 153 149 150 142 141 142 138 139 139 139 138 136 139 137 132 139 148 146 151 158 161 159 157 170 172 161 161 162 164 166 160 144 132 123 116 105 104 105 102 104 110 114
166 168 166 161 161 157 156 152 152 165 169 171 174 177 180 171 168 170 163 156 149 147 144 139 143 142 138 140 140 140 141 138 138 139 140 145 147 146 154 158 160 166 172 181 182 176 172 170 173 172 161 146 137 130 123 114 115 115 110 110 113 116
165 168 165 163 160 154 154 151 151 160 164 169 172 177 179 171 165 160 159 155 145 142 141 143 144 137 136 136 138 141 142 140 139 142 142 141 141 147 154 155 161 169 175 180 181 183 179 176 176 170 159 150 143 134 128 120 118 118 116 115 117 115
164 164 161 158 157 154 155 152 152 158 161 165 165 171 173 163 159 157 159 154 143 142 144 145 140 136 136 134 138 140 140 142 140 143 141 140 143 143 141 144 154 160 170 175 177 184 182 175 173 167 160 154 145 136 129 122 118 120 122 121 123 120
161 158 154 153 156 156 155 152 152 158 162 164 162 165 165 152 151 155 155 150 145 145 145 146 143 141 138 137 141 141 144 147 148 154 150 151 150 141 137 139 146 152 162 170 173 180 180 173 171 167 161 154 143 136 131 128 126 123 123 123 124 119
157 155 152 154 161 158 154 154 155 161 163 163 163 157 155 153 152 154 151 148 150 147 146 148 145 144 143 142 145 147 149 150 157 164 158 154 150 141 140 140 143 150 157 165 168 174 179 171 170 168 164 157 146 142 138 134 132 126 124 124 122 115
154 154 153 159 161 159 156 155 159 164 164 163 161 154 153 157 153 153 151 150 152 151 149 149 149 150 149 148 150 153 152 154 158 163 160 157 155 147 142 143 141 143 152 161 160 165 175 167 165 166 166 163 153 151 147 138 134 130 132 133 129 122
158 158 160 165 161 160 158 157 163 164 165 165 158 152 156 159 153 153 153 153 155 156 154 153 156 156 154 154 154 155 155 156 157 159 161 157 162 156 148 148 141 136 140 151 156 157 160 158 161 163 166 169 161 157 148 141 140 136 141 140 135 134
159 161 163 166 162 161 159 160 166 163 164 166 160 153 158 161 156 153 153 156 159 160 159 158 159 159 157 156 154 156 154 152 152 154 157 157 164 162 157 156 147 141 138 144 151 148 147 151 156 159 163 166 162 161 149 148 147 140 143 142 144 147
157 164 169 169 164 163 162 164 165 164 166 164 162 160 161 166 160 155 157 160 161 163 165 163 161 159 159 158 155 156 155 153 152 152 157 160 163 161 160 161 157 152 144 145 148 149 151 148 149 151 151 155 158 159 155 157 152 146 148 144 150 152
163 169 173 171 169 169 167 166 166 165 166 163 166 166 164 168 163 160 162 163 166 167 168 167 164 162 161 162 161 161 161 159 155 154 160 165 164 162 159 160 163 157 149 146 143 148 152 142 140 137 135 144 151 156 160 160 154 154 155 149 149 151
173 174 171 169 171 174 169 165 165 164 165 165 168 167 167 170 166 165 166 167 170 169 170 169 166 167 166 168 169 167 164 162 161 159 160 162 164 162 158 157 160 160 156 148 138 138 139 132 128 125 129 141 146 161 166 160 158 158 157 155 153 148
178 178 171 170 172 176 174 165 162 164 168 168 168 169 170 170 167 167 168 168 170 171 173 170 169 171 171 175 174 164 162 166 166 163 161 162 166 164 159 158 155 158 159 151 140 134 134 129 126 125 128 134 144 162 166 154 154 156 159 164 163 157
182 180 174 172 171 177 177 167 161 163 167 168 171 174 172 170 170 170 169 168 170 171 174 173 173 174 175 180 172 164 167 171 168 167 169 164 161 159 155 159 155 152 155 151 144 141 139 131 127 127 127 133 142 149 147 143 147 160 166 170 178 179
183 179 176 171 170 176 174 164 162 163 164 170 176 174 171 172 173 173 171 169 169 172 177 177 178 177 179 180 171 168 170 171 172 173 176 167 160 156 153 159 157 152 151 147 143 141 138 131 127 126 128 133 135 136 135 137 150 165 170 180 186 185
182 176 173 170 170 176 171 163 164 169 169 175 179 172 172 175 175 177 174 171 171 176 181 182 183 180 179 179 174 173 171 174 180 182 185 179 172 166 163 165 159 152 150 143 140 140 140 137 129 123 126 127 126 128 131 137 157 167 175 193 189 182
177 172 174 173 173 176 174 167 170 177 177 178 176 169 172 176 175 177 174 173 176 181 185 185 186 182 179 180 176 175 173 177 185 189 192 187 179 174 174 173 160 154 153 147 144 147 150 145 135 128 126 125 117 110 114 128 148 159 172 190 190 190
173 172 177 176 175 178 178 173 174 181 181 177 173 170 173 174 173 173 171 175 180 186 189 188 187 184 182 182 181 180 174 174 182 186 186 182 179 178 180 178 166 158 154 153 151 154 161 158 150 148 144 138 125 107 104 117 130 142 161 167 177 192
173 173 176 176 177 178 177 174 176 181 180 175 171 170 171 169 169 170 171 176 182 186 189 190 188 185 183 183 185 182 170 169 176 178 181 180 179 183 184 180 175 166 156 159 160 161 172 182 168 159 161 160 147 131 122 130 133 134 161 168 168 184
175 173 174 178 177 175 173 171 173 175 174 170 164 163 163 164 167 168 172 177 180 183 185 187 184 180 180 180 181 177 166 167 174 178 183 184 183 185 183 180 180 174 165 165 165 167 181 201 174 162 176 178 155 167 165 151 143 125 155 174 175 192
177 174 174 179 177 172 168 166 166 165 164 161 158 162 166 168 170 170 174 177 177 179 180 182 180 178 178 174 175 174 168 170 175 180 182 183 183 181 179 181 181 177 176 174 169 173 185 205 189 178 213 215 152 183 177 157 153 123 132 158 169 190
178 179 177 178 178 172 168 168 169 167 167 166 165 171 175 173 171 171 174 172 170 173 176 178 178 177 175 171 174 174 171 173 174 177 179 178 179 178 179 181 179 180 185 185 178 177 183 199 197 190 224 237 185 261 188 167 166 137 131 135 129 135
180 183 181 179 178 173 171 173 173 172 173 173 173 176 177 174 169 168 168 164 165 169 172 175 175 175 173 170 174 173 171 171 171 173 175 174 176 180 184 179 176 182 188 188 188 186 183 187 191 192 214 225 247 264 207 183 177 154 148 130 97 85
183 186 184 180 179 176 176 175 175 176 176 177 178 174 172 171 167 164 164 162 163 166 170 173 171 172 171 167 171 172 170 170 170 170 171 174 175 176 179 172 172 181 187 187 189 197 190 188 196 195 196 212 221 207 189 190 205 190 162 140 122 99
184 187 184 181 179 178 178 177 178 180 178 178 177 171 168 167 165 163 162 161 162 163 166 170 171 173 170 165 167 171 171 170 170 169 171 174 173 173 173 168 172 180 183 186 188 200 198 195 208 200 187 203 201 176 181 186 203 213 176 151 151 135
183 185 182 180 179 178 178 179 181 180 179 178 173 169 166 165 165 164 161 161 162 163 164 168 171 173 170 168 169 170 170 169 169 170 172 173 172 173 173 169 173 178 178 183 186 196 200 197 209 209 196 203 199 189 193 182 189 205 186 165 156 147
183 183 180 177 177 178 177 177 178 179 178 175 170 169 166 164 165 164 163 162 162 164 163 165 167 167 168 168 167 167 167 167 168 169 171 174 174 174 174 170 171 174 177 184 187 192 200 201 207 209 205 211 221 222 208 138 196 223 203 158 146 150
182 183 181 178 177 179 177 174 175 176 176 171 168 169 167 166 166 164 164 163 163 164 162 162 163 164 168 167 164 165 164 165 168 169 170 172 171 171 171 170 170 173 178 185 189 192 197 201 205 209 209 212 229 246 252 191 202 241 284 139 147 153
182 185 185 180 177 177 173 171 172 173 174 170 168 171 169 166 165 165 164 164 164 164 162 163 164 164 167 167 166 168 166 167 169 170 171 171 170 171 171 169 168 169 174 181 186 193 199 199 202 211 215 210 208 213 218 211 197 209 215 170 160 157
184 187 186 179 176 175 169 166 168 169 172 171 170 173 170 166 167 166 165 166 165 164 163 163 163 162 163 165 168 171 173 172 170 168 169 169 170 175 176 172 168 164 168 177 182 193 202 198 199 209 217 217 207 196 195 201 192 187 200 188 169 158
187 186 182 175 171 166 163 166 169 169 172 172 173 173 169 167 168 167 166 166 165 162 161 161 161 160 161 164 165 169 174 170 165 164 163 163 167 177 183 177 171 167 170 177 180 192 201 196 199 205 210 220 215 201 195 198 193 195 204 194 169 163
191 183 175 168 163 161 164 169 171 171 173 173 172 170 168 166 168 168 165 165 164 161 157 156 157 159 161 164 163 164 166 161 159 157 155 160 168 177 181 170 166 169 170 177 182 189 196 194 196 198 201 217 219 205 201 204 201 200 203 197 176 168
161 153 151 153 158 163 168 172 176 178 176 175 172 169 168 166 166 167 163 162 161 156 154 153 154 159 162 160 159 159 158 156 155 153 151 157 169 177 179 168 164 167 166 171 179 184 191 190 188 189 192 206 213 204 200 204 203 193 191 194 179 159